Погода в Каракульском

Россия / Челябинская область     54°03′35″N   62°25′35″E
темп.,
°C
ветер,
м/с
пор.,
м/с
влажн.,
%
обл.,
%
осадки,
мм/ч
давл.,
гПа
погр.,
м
19 января, вт
вт1923:00−23з118851 0.0 102320
02:00−22ююз1186100 0.0 102320
05:00−21вюв1287100 0.0 102320
08:00−19в2290100 0.0 102362
11:00−17вюв3588100 0.0 1022232
14:00−16в4688100 0.0 1022265
17:00−16в5989100 0.0 1020308
20:00−15в51188100 0.1 1018359
20 января, ср
ср2023:00−14в51091100 0.6 1017417
02:00−13в51091100 0.4 1015479
05:00−13в4795100 1.9 1013427
08:00−13в1296100 0.9 101257
11:00−14з2296100 1.3 101240
14:00−14з589398 0.1 1012377
17:00−18зюз479376 0.1 1014119
20:00−20юз469115 0.0 101688
21 января, чт
чт2123:00−20зюз46937 0.0 101786
02:00−22зюз44910 0.0 101861
05:00−23зюз44910 0.0 101869
08:00−24з34910 0.0 101847
11:00−24з34910 0.0 101867
14:00−21зюз23900 0.0 101762
17:00−22зюз348928 0.0 101727
20:00−22зюз338839 0.0 101721
22 января, пт
пт2223:00−21зюз238869 0.0 101720
02:00−19зюз2289100 0.0 101623
05:00−19зюз1290100 0.0 101620
08:00−22з129399 0.0 101720
11:00−21юз129392 0.0 101720
14:00−19ююз129284 0.0 101721
17:00−18ююз229792 0.1 101721
20:00−18в0098100 0.4 101820
23 января, сб
сб2323:00−19ссв2397100 0.6 102040
02:00−20с3397100 0.1 102447
05:00−25с479882 0.1 102898
08:00−30с349725 0.0 103248
11:00−31с239619 0.0 103536
14:00−29сз119421 0.0 103624
17:00−30ююв229241 0.0 103619
20:00−28вюв1194100 0.0 103619